ISIS 1 (3669 NORAD) Tracking and Keplerian Element Data

This shows tracking and keplerian element data for the satellite.

Feedback or suggestion? Click here.




ElementValue
Catalog3669
NameISIS 1
Epoch Orbit30342
Epoch Day34.42086287
Epoch Year2025
RAAN198.8235
Inclination88.4488
Eccentricity0.1708545
Argument of Perigee175.103
Mean Anonmoly186.9441
Mean Motion11.30182704
Decay Rate8.54E-06
L11 03669U 69009A 25034.42086287 .00000854 00000+0 60392-3 0 9998
L22 03669 88.4488 198.8235 1708545 175.1030 186.9441 11.30182704303421



Live tracking and technical data element details for ISIS 1 (NORAD 3669). ISIS 1 can be tracked NOW for your location showing map with azimuth and elevation plus other details from your city location.







IsCatalogInMostPopularTable: catalog: 3669, numindb: 380
Update: records affected: 1



GetName: 3669 ISIS 1

Hit Count: updated at: Thu, 15 May 2025 19:35:52 GMT